Tracking 30685 objects as of 17-Jun-2025
HD Live streaming from Space Station
objects crossing your sky now

ATLAS 5 CENTAUR DEB

Track ATLAS 5 CENTAUR DEB now!


NORAD ID: 53516
Int'l Code: 2014-055DM
Perigee: 8,245.0 km
Apogee: 35,574.3 km
Inclination: 19.4 °
Period: 788.8 minutes
Semi major axis: 28280 km
RCS: Unknown
Launch date: September 17, 2014
Source: United States (US)
Launch site: AIR FORCE EASTERN TEST RANGE (AFETR)

Note: This is SATELLITE DEBRIS
Your satellite tracking list
Your tracking list is empty




NASA's NSSDC Master Catalog

Two Line Element Set (TLE):
1 53516U 14055DP  25166.54281863  .00000001  00000-0  00000-0 0  9993
2 53516  19.4076 191.4453 4831788  80.6632 329.0382  1.82544549 19380
Source of the keplerian elements: AFSPC